Weather in Huacho

Peru     11°06′14″S   77°35′44″W
temp.,
°C
wind,
m/s
gust,
m/s
humid.,
%
clouds,
%
prec.,
mm/h
press.,
hPa
HPBL,
m
16 january, sun
sun1601:00+20wsw118039 0.0 1016228
04:00+20sw118273 0.0 1014222
07:00+20ssw118159 0.0 1015204
10:00+24sw326313 0.0 1014734
13:00+27wsw535326 0.0 10121039
16:00+25sw435978 0.1 1012818
19:00+22sw336996 0.4 1013417
22:00+21ssw227583 0.0 1015330
17 january, mon
mon1701:00+20ssw217972 0.0 1014333
04:00+20w017968 0.0 1012215
07:00+20sw118058 0.0 1013228
10:00+24sw326220 0.0 1013755
13:00+27sw535464 0.0 10111019
16:00+25sw536054 0.0 1011853
19:00+22sw337196 0.0 1012459
22:00+21ssw2278100 0.0 1014385
18 january, tue
tue1801:00+20sw118179 0.0 1013298
04:00+20sw018382 0.0 1012209
07:00+21sw118021 0.0 1013202
10:00+24wsw426543 0.0 1013837
13:00+25sw436051 0.0 10121008
16:00+24sw436462 0.0 1011861
19:00+22ssw3371100 0.1 1012529
22:00+21ssw2377100 0.0 1014485
19 january, wed
wed1901:00+21sw117693 0.0 1013383
04:00+20ssw118195 0.0 1012262
07:00+20wsw1179100 0.0 1014272
10:00+24sw326295 0.0 1014902
13:00+27sw545427 0.0 10121149
16:00+25ssw555853 0.0 1011996
19:00+23ssw336939 0.0 1012576
22:00+22s227371 0.0 1014404
20 january, thu
thu2001:00+21s127684 0.0 1012308
04:00+21s227981 0.0 1011180
07:00+21ssw117988 0.0 1012225
10:00+24sw326394 0.0 1012866
13:00+26sw6460100 0.0 1010967
16:00+25sw546368 0.0 1009938
19:00+22ssw337569 0.0 1010439
22:00+21s2282100 0.0 1012265